Theta_e
317 317 316 315 313 311 310 327 316 324 329 317 318 314 316 307 318 321 319 319 316 314 313 311 312 311 315 319 319 313 317 314 310 312 318 319 317 314 315 309 307 311 309 309
318 317 316 314 312 311 321 325 321 326 328 312 314 317 316 317 317 319 318 316 318 317 314 311 313 314 319 319 319 317 318 312 307 310 315 317 313 315 315 315 314 309 306 309
318 317 316 314 313 311 317 328 315 319 322 321 317 313 315 314 318 319 320 319 320 318 316 319 315 315 317 319 319 324 321 314 311 306 310 316 312 314 315 314 309 310 310 311
318 317 316 315 313 312 318 328 323 321 312 314 316 316 316 314 314 320 321 319 319 317 315 316 315 318 317 318 316 318 319 312 315 316 315 314 314 313 314 313 313 309 311 311
318 318 316 315 314 311 323 323 323 326 322 318 315 309 315 315 316 318 317 318 318 318 317 317 315 316 318 317 321 319 321 313 315 312 315 314 312 313 314 313 313 312 312 311
318 318 317 316 314 313 325 327 330 325 315 319 315 314 314 316 318 319 322 319 318 317 318 320 321 321 321 320 318 318 317 315 313 309 314 313 308 312 313 314 314 313 308 313
318 318 317 317 316 314 323 325 325 323 319 319 317 316 316 317 318 319 319 321 320 321 323 323 322 320 319 319 319 319 315 315 314 308 311 301 313 317 314 311 312 312 314 316
317 318 318 318 317 315 322 326 324 324 319 320 318 317 316 319 319 319 319 320 323 324 321 317 314 314 315 316 317 317 317 314 309 306 306 309 311 313 312 311 311 317 316 318
316 317 318 318 317 315 322 328 326 325 321 319 321 318 319 318 318 318 319 322 324 322 319 315 309 306 310 309 311 316 314 314 309 307 302 299 312 315 317 316 305 319 319 318
315 316 317 317 317 316 318 326 326 324 321 322 322 319 320 322 322 319 321 320 319 321 316 311 309 308 311 305 306 309 311 311 306 306 304 308 316 317 318 305 310 319 319 319
315 315 316 317 317 316 317 326 328 323 323 322 322 321 322 322 322 318 321 319 319 319 313 312 311 310 311 309 311 311 309 308 307 308 305 303 318 316 310 317 320 319 319 318
314 314 315 316 315 316 316 324 327 326 323 323 325 324 323 322 321 321 323 321 321 321 317 318 314 312 311 310 305 315 307 313 311 311 311 319 319 317 319 319 318 318 318 318
313 313 313 314 315 315 315 323 325 324 322 320 320 318 322 325 323 324 318 322 324 323 324 317 317 309 314 307 309 311 314 316 309 310 314 315 316 318 319 319 318 319 320 320
312 312 312 313 313 315 314 323 325 323 322 316 316 323 321 324 324 321 322 324 325 325 322 315 313 310 317 310 313 311 314 316 309 311 314 317 317 318 320 320 320 320 321 321
311 311 311 312 312 313 317 326 329 327 320 315 316 320 321 323 323 320 320 319 319 318 315 313 311 317 315 315 312 308 315 313 310 309 316 317 317 319 320 319 319 321 321 321
309 309 310 311 311 312 322 321 328 328 325 319 312 321 318 321 322 320 319 322 323 320 317 317 318 317 312 310 310 316 315 315 317 316 319 319 319 321 321 320 322 322 321 322
308 308 309 310 310 314 319 318 321 313 323 320 315 314 319 321 321 322 320 322 323 320 318 316 318 316 313 312 309 316 316 318 318 319 319 317 318 317 322 322 323 322 322 321
308 308 309 309 309 311 317 323 314 317 321 320 314 314 314 321 316 316 324 319 320 319 319 318 315 317 314 309 316 316 317 318 318 319 319 319 321 323 322 323 321 320 320 321
308 308 309 314 317 319 322 316 314 326 321 314 313 312 308 319 318 320 318 321 313 321 315 318 316 313 309 314 316 315 317 317 318 318 319 321 321 321 321 321 321 320 319 316
309 312 316 314 322 317 317 320 319 318 318 316 313 317 313 316 316 314 315 316 314 310 314 318 309 311 320 320 319 321 319 319 320 316 318 321 320 319 321 320 319 318 316 316
311 314 316 323 314 321 319 314 312 313 310 313 313 316 313 320 313 313 319 314 314 306 311 309 309 309 316 320 321 322 321 322 321 323 322 322 321 320 321 318 317 318 316 314
308 310 318 325 319 315 310 309 312 311 308 313 311 315 318 318 323 317 315 311 312 303 314 308 305 315 321 320 319 320 321 322 323 323 322 322 322 322 320 317 317 316 316 317
315 314 315 314 313 300 303 302 306 308 314 314 314 313 317 318 318 316 312 307 306 315 308 307 312 319 320 321 322 319 321 323 323 323 322 322 323 322 318 317 317 318 316 316
308 310 298 307 305 306 308 309 310 316 316 315 317 315 313 315 312 313 306 312 312 304 303 304 314 320 321 322 321 320 320 322 323 321 321 323 320 318 321 319 318 316 314 314
307 310 301 305 312 314 315 318 316 318 318 316 315 315 315 312 310 311 309 304 302 305 306 312 318 322 321 322 322 323 325 324 321 321 321 321 321 319 318 319 319 316 315 315
310 309 308 312 310 311 313 314 315 319 318 319 317 312 309 308 309 305 304 302 301 307 314 317 320 322 322 324 326 327 326 323 321 322 322 321 320 320 320 320 317 320 317 316
307 307 313 312 313 310 313 315 317 320 316 312 312 306 304 312 307 305 310 307 312 315 316 318 323 324 326 326 327 327 325 323 323 322 322 321 321 322 321 320 317 316 315 315
Wind_Speed
19 22 23 21 23 28 3 10 5 9 8 9 10 12 2 4 5 8 6 9 7 9 14 14 12 4 2 4 5 12 13 11 11 14 7 6 12 15 11 9 6 9 7 4
20 20 23 21 20 18 8 7 7 7 9 8 9 10 6 7 7 8 9 10 7 2 7 7 6 5 9 2 9 5 3 9 13 12 15 13 11 15 11 16 12 12 9 3
19 20 22 21 20 17 6 8 6 7 9 14 14 13 13 12 6 4 6 3 6 7 4 5 6 6 3 3 5 9 5 15 18 12 3 12 8 9 8 13 12 14 13 18
19 20 24 22 23 20 6 7 2 6 9 12 12 7 11 12 9 9 8 7 14 14 9 9 9 8 9 6 6 5 10 13 16 13 9 6 15 16 14 13 14 15 17 18
17 19 21 23 27 26 7 7 6 4 7 6 11 7 10 14 10 5 13 11 10 4 7 1 5 2 2 5 11 11 9 12 11 14 16 19 16 15 17 16 18 17 16 14
17 18 19 21 25 24 5 6 5 7 5 9 9 11 15 12 3 3 12 8 7 7 10 7 7 5 7 5 7 10 8 12 13 15 14 19 15 15 12 14 11 12 14 5
16 17 17 19 18 16 9 5 6 7 8 7 8 1 7 8 7 6 4 5 10 8 3 3 6 6 4 4 9 9 11 12 10 14 16 18 11 7 4 8 10 12 10 9
15 16 16 17 17 16 10 5 5 6 11 7 5 6 8 4 5 8 7 6 7 5 5 7 8 9 12 12 5 10 13 10 12 13 14 15 13 5 4 8 8 8 4 4
14 15 16 16 16 17 10 4 5 6 8 3 11 5 6 8 9 7 8 4 3 3 5 6 8 11 12 2 5 3 8 7 10 11 12 12 13 9 6 5 9 11 7 6
12 15 16 16 17 16 9 5 6 6 8 7 6 4 4 5 3 7 9 5 5 5 7 8 10 10 4 6 10 7 6 6 10 9 9 3 9 6 5 8 7 7 7 8
11 13 15 16 16 16 10 5 4 6 7 7 5 5 5 3 6 7 11 4 6 5 6 8 8 4 6 5 5 4 8 6 8 6 9 6 10 5 6 7 7 10 11 13
9 12 14 15 16 16 14 5 4 4 7 8 3 4 3 5 7 9 3 6 5 6 4 1 6 4 5 7 6 4 4 5 8 8 7 4 4 5 5 9 11 12 13 14
9 11 13 15 15 16 12 7 5 4 7 5 7 8 2 3 5 6 6 3 5 2 6 7 3 4 5 7 3 1 6 2 6 5 6 5 6 10 8 11 13 12 14 17
9 11 13 15 16 16 14 7 5 5 7 6 10 5 3 5 5 4 6 3 2 2 4 5 5 5 1 4 6 6 8 3 4 7 3 8 4 11 11 14 16 18 18 19
9 12 13 15 17 17 12 8 3 3 7 7 7 8 4 4 4 2 3 6 6 5 5 5 6 3 2 2 4 6 3 6 4 6 7 6 10 12 14 14 15 17 20 21
9 12 14 15 16 17 8 6 4 4 5 7 4 8 4 4 4 4 2 3 1 3 3 0 3 4 5 3 2 7 5 2 5 5 8 10 12 13 15 16 18 18 19 19
10 13 15 15 14 10 5 7 6 9 7 5 3 6 6 6 6 4 5 4 0 3 2 3 2 5 4 3 3 9 5 2 3 5 7 12 12 14 15 13 14 13 16 17
10 11 14 15 17 16 8 3 8 6 6 4 4 5 7 9 6 5 1 4 4 2 3 1 5 5 4 3 10 4 3 2 5 8 10 13 14 14 16 15 16 20 20 20
9 12 15 7 6 6 6 6 3 5 6 5 5 5 6 8 7 4 4 3 5 4 4 2 1 4 3 8 6 4 3 5 9 12 13 13 13 12 13 17 19 19 19 17
8 8 7 6 5 9 6 4 6 6 6 5 6 6 5 8 6 7 5 4 2 5 3 4 5 3 11 7 4 4 5 6 9 12 12 14 15 14 17 16 14 14 14 14
4 6 1 6 2 5 5 5 6 6 5 6 8 6 7 3 8 6 2 3 4 4 6 5 6 4 10 9 6 2 4 7 9 9 8 11 12 14 15 14 15 14 14 13
4 5 7 3 5 6 6 6 5 5 7 5 10 8 5 5 3 3 3 3 2 2 4 4 4 9 10 7 3 1 4 7 8 7 10 10 11 13 13 12 12 13 13 12
4 5 7 6 5 1 8 9 6 6 5 6 9 9 5 4 6 3 4 5 4 3 4 4 5 11 7 4 1 4 5 4 5 9 8 10 14 13 10 11 11 13 11 11
4 6 2 7 8 8 6 7 8 6 7 10 10 9 7 5 6 3 4 2 1 5 5 5 9 9 7 2 3 5 4 3 6 5 9 14 12 9 10 10 10 11 12 11
4 5 5 9 5 2 4 4 5 5 9 11 9 7 5 5 3 4 2 5 5 5 3 9 11 8 4 2 3 3 3 5 4 5 9 10 10 9 9 10 10 10 11 12
4 5 7 4 4 8 7 7 7 6 9 9 8 5 6 5 4 5 6 5 5 6 3 10 8 5 3 3 2 3 4 4 4 6 8 6 8 8 8 9 8 9 10 10
3 5 5 6 3 0 8 8 8 7 10 10 5 6 5 3 5 6 4 4 5 7 6 8 6 4 4 3 4 4 4 3 4 5 5 4 2 5 8 8 7 8 8 11
Wind_Direction
339 345 348 346 341 336 269 273 200 142 181 213 230 241 139 23 237 181 232 295 257 251 167 209 200 199 145 76 283 206 235 289 241 218 77 325 298 308 297 272 240 255 315 335
339 344 348 346 347 355 310 252 103 159 220 230 206 242 216 239 213 195 198 219 258 161 187 204 243 184 67 203 239 337 301 239 254 237 195 198 241 248 251 282 299 282 274 260
338 342 347 344 346 348 283 279 157 157 214 270 288 201 210 200 210 286 266 287 211 210 160 248 182 153 119 197 251 24 307 270 279 298 203 258 250 226 251 281 287 304 304 319
339 342 348 342 344 344 267 246 309 138 187 224 238 259 214 221 174 237 215 221 212 208 199 195 191 147 135 179 132 218 247 271 277 303 302 259 287 293 291 271 276 275 299 306
340 342 347 346 343 337 253 309 329 195 305 200 213 142 226 233 195 206 193 246 217 265 277 265 174 210 256 204 169 240 254 274 283 285 291 288 261 276 287 280 278 279 289 287
340 343 344 351 355 338 317 8 256 277 156 210 213 213 227 221 201 226 297 230 176 191 52 26 17 336 329 352 269 285 286 289 292 278 282 294 279 270 290 294 294 310 296 358
339 342 343 348 354 360 304 12 285 271 249 230 222 346 206 233 202 261 167 272 237 67 140 232 251 269 263 279 277 280 280 274 278 278 279 267 270 52 330 306 310 298 314 327
340 341 344 346 349 353 303 346 305 296 277 199 153 230 191 177 162 207 141 63 60 132 203 253 234 239 228 243 253 302 286 276 271 273 261 278 270 109 348 352 327 1 332 351
340 341 346 346 348 352 308 1 316 278 299 97 349 201 202 193 185 154 125 123 61 249 272 249 262 267 294 281 198 187 308 269 262 251 268 283 62 67 15 4 278 34 350 337
339 340 345 348 348 348 322 319 0 273 274 72 316 303 285 323 245 195 140 150 181 260 263 253 268 270 17 275 269 238 226 257 243 240 255 237 54 14 331 269 40 350 351 336
340 340 344 347 348 348 335 327 11 311 294 83 331 352 347 276 264 290 102 204 212 241 258 265 280 236 264 258 282 322 262 262 263 220 282 265 20 286 336 15 324 342 325 316
345 338 343 347 347 345 336 269 38 313 266 29 349 31 20 350 355 329 187 12 343 16 275 320 303 250 249 281 271 164 258 345 343 337 34 117 343 341 3 331 316 315 314 309
340 332 337 341 343 344 341 306 334 258 274 190 205 158 64 29 357 333 296 153 36 219 336 315 302 311 339 279 254 90 159 10 273 335 75 4 345 321 318 324 312 302 306 310
335 335 334 334 336 335 330 296 355 269 293 271 129 140 130 303 56 341 325 51 234 339 247 246 262 254 145 301 39 303 45 191 353 279 290 359 288 355 337 330 323 316 305 298
324 328 329 328 329 325 302 261 290 341 307 324 116 131 169 145 78 76 190 208 196 206 198 229 229 26 295 195 326 264 96 26 292 3 22 343 329 330 316 304 304 312 309 304
318 322 322 322 323 322 277 200 154 8 330 276 192 80 135 96 115 106 139 145 131 257 258 243 54 48 274 266 238 77 60 63 46 343 338 323 317 310 320 311 308 331 332 314
307 318 313 310 311 304 299 357 7 340 299 251 212 149 151 168 167 150 130 187 139 273 102 235 108 152 258 294 270 99 99 14 350 319 321 319 323 314 311 336 337 310 313 328
297 303 301 298 293 277 257 158 219 267 271 267 260 106 154 200 188 154 224 172 184 174 37 166 236 127 231 266 96 113 104 297 296 342 324 318 312 319 347 343 316 339 333 338
296 296 292 278 218 227 75 105 173 241 295 282 230 181 159 169 230 94 177 273 208 91 241 166 234 175 227 116 136 158 58 350 339 325 322 317 328 349 343 323 344 335 333 327
302 271 206 205 82 123 154 168 192 197 198 228 263 261 127 194 167 191 161 200 201 202 113 95 237 174 104 129 102 49 1 347 332 321 328 337 338 338 337 342 352 334 329 327
218 228 91 75 124 213 214 202 216 179 212 201 235 215 152 217 194 166 270 162 143 242 113 253 179 198 144 152 146 88 343 332 319 333 330 347 335 354 346 346 338 335 335 327
326 300 271 203 214 215 199 198 202 217 217 157 196 172 180 137 269 100 178 208 185 261 111 237 230 104 126 156 108 301 340 318 325 335 6 333 357 10 358 343 336 336 328 326
266 228 210 209 169 167 209 188 187 195 180 152 177 159 113 147 229 106 197 202 212 79 219 218 63 122 126 123 232 296 306 320 322 27 325 3 21 17 355 351 345 336 345 351
245 202 204 213 186 214 201 205 195 105 156 162 174 164 186 136 177 166 203 112 179 228 234 196 136 140 119 167 267 291 315 329 38 332 20 31 27 8 13 6 3 3 357 360
248 241 224 204 266 190 142 68 92 169 150 168 153 161 148 161 122 215 131 181 229 218 215 104 109 116 121 249 281 316 10 36 41 6 42 43 37 34 32 22 23 21 10 20
243 242 257 210 195 174 174 191 157 168 165 161 162 169 166 176 172 182 188 208 226 150 106 106 123 114 162 205 242 64 53 66 49 33 60 43 57 43 42 43 24 29 19 29
255 240 240 295 316 92 170 183 144 176 171 180 156 179 164 124 202 195 182 217 100 99 102 89 81 154 172 208 97 124 102 91 56 49 70 35 115 70 21 15 34 42 23 45